[[{"header":{"parameterUnit":"m.s-1","parameterCategory":1,"la1":30.2991,"la2":30.254,"lo1":-89.0895,"lo2":-89.0444,"dy":0.0017,"dx":0.0017,"nx":28,"ny":28,"refTime":"2025-08-19T09:00:00:Z","depth":0,"parameterNumber":2,"parameterNumberName":"U-component_of_WINDS"},"data":[0,0,0,0,0,0,0,0,0,0,0,0,0,0,0,0,0,0,0,0,0,0,0,0,0,0,0,0,0,0,0,0,0,0,0,0,0,0,0,0,0,0,0,0,0,0,0,0,0,0,0,0,0,0,0,0,0,0,0.2122,0.2122,0,0.213,0.213,0.213,0.2116,0.2116,0.2115,0.2115,0.2124,0.2125,0.2126,0,0,0,0,0,0,0,0,0,0,0,0,0,0.2095,0.2096,0.2122,0.2122,0.2122,0.213,0.213,0.213,0.2116,0.2116,0.2115,0.2115,0.2124,0.2125,0.2126,0,0,0,0,0,0,0,0,0,0,0,0,0,0.2105,0.2096,0.2122,0.2116,0.2115,0.213,0.213,0.213,0.2116,0.2116,0.2115,0.2114,0.2124,0.2125,0.2126,0.2147,0,0,0.2129,0.2129,0,0,0,0,0,0,0,0,0.2105,0.2106,0.2117,0.2116,0.2116,0.2121,0.2124,0.2136,0.2117,0.2116,0.2115,0.2114,0.2124,0.2125,0.2128,0.2147,0.2147,0.2129,0.213,0.213,0.213,0,0,0,0,0,0,0,0.2104,0.2106,0.2125,0.2117,0.2116,0.2113,0.2114,0.2126,0.2124,0.2116,0.2115,0.2116,0.2124,0.2127,0.2128,0.2148,0.2129,0.213,0.2131,0.2131,0.2185,0.2186,0,0,0,0,0,0,0.2104,0.2105,0.2125,0.2125,0.2108,0.2114,0.2115,0.212,0.2124,0.2124,0.2117,0.2116,0.2126,0.2127,0.2128,0.2153,0.213,0.2131,0.2132,0.2184,0.2185,0.2186,0,0,0,0,0,0,0.2103,0.2106,0.2124,0.2115,0.2117,0.2116,0.2122,0.2121,0.2124,0.2124,0.2124,0.2121,0.2125,0.2127,0.2142,0.2153,0.2132,0.2132,0.2183,0.2184,0.2185,0.2203,0,0,0,0,0,0,0.2103,0.2106,0.2113,0.2115,0.2118,0.2138,0.2122,0.2122,0.2126,0.2125,0.2128,0.2128,0.2125,0.2141,0.2143,0.2154,0.2133,0.2182,0.2184,0.2185,0.2201,0.2204,0.2207,0,0,0,0,0,0.2102,0.2118,0.2114,0.2116,0.2127,0.2138,0.214,0.2136,0.2127,0.2135,0.2135,0.2128,0.2152,0.2142,0.2145,0.2157,0.2181,0.2183,0.2185,0.22,0.2204,0.2207,0,0,0,0,0,0,0.2117,0.2118,0.2113,0.213,0.2134,0.2136,0.2145,0.214,0.2147,0.2145,0.214,0.2141,0.2157,0.2159,0.2148,0.2177,0.2165,0.2168,0.2176,0.2179,0.2182,0.2181,0.2134,0,0,0,0,0,0.2122,0.2131,0.2132,0.2147,0.2149,0.2147,0.2152,0.2148,0.2152,0.2154,0.2155,0.216,0.2168,0.2174,0.2182,0.2202,0.2202,0.2211,0.2214,0.2217,0.2218,0.2229,0.2233,0.2192,0.2192,0.2192,0,0,0.2133,0.2135,0.2141,0.215,0.2152,0.2162,0.2148,0.2159,0.2166,0.2156,0.217,0.2171,0.2176,0.2194,0.2202,0.2195,0.223,0.2219,0.2221,0.2221,0.2231,0.2235,0.2239,0.2193,0.2193,0.2193,0,0,0.2158,0.216,0.2173,0.2176,0.218,0.2179,0.2182,0.2185,0.2185,0.22,0.2192,0.2201,0.2216,0.222,0.2224,0.2251,0.2245,0.2254,0.2269,0.228,0.2283,0.2286,0.2296,0.2299,0.2256,0.2256,0.2256,0,0.2171,0.2184,0.218,0.2191,0.2196,0.2187,0.22,0.2204,0.2211,0.2214,0.2207,0.2226,0.2229,0.2247,0.2254,0.2258,0.2261,0.2253,0.2283,0.2286,0.2289,0.2298,0.2301,0.2257,0.2257,0.2257,0.2257,0,0.22,0.221,0.222,0.2227,0.2232,0.2245,0.2243,0.2249,0.2246,0.2245,0.2261,0.2264,0.2272,0.2277,0.2273,0.2295,0.2291,0.2284,0.2271,0.2294,0.2302,0.2305,0.2259,0.2259,0.2258,0.2258,0,0,0.2233,0.2238,0.2242,0.2245,0.225,0.2257,0.227,0.2278,0.2284,0.2289,0.2299,0.2313,0.2306,0.2311,0.2308,0.2318,0.2339,0.2309,0.2309,0.2314,0.2363,0.2368,0.2372,0.2336,0.2336,0.2337,0.2363,0,0.2258,0.2278,0.2275,0.2295,0.2304,0.2297,0.2308,0.2312,0.2313,0.2321,0.2322,0.2331,0.2322,0.2325,0.2334,0.2335,0.2349,0.2333,0.2345,0.2345,0.2343,0.2376,0.2381,0.2405,0.2366,0.2367,0.2367,0,0.2288,0.2295,0.2315,0.2319,0.2323,0.2333,0.234,0.2348,0.2354,0.2353,0.2359,0.2355,0.2368,0.2356,0.2374,0.2363,0.2368,0.2369,0.237,0.237,0.2357,0.2377,0.2413,0.2416,0.2372,0.2372,0.2371,0,0.2309,0.2324,0.2338,0.2341,0.2346,0.2353,0.2355,0.236,0.2365,0.2373,0.2376,0.2385,0.2389,0.2396,0.2395,0.2387,0.2413,0.2401,0.2413,0.2413,0.2418,0.2418,0.2455,0.2423,0.2423,0.2423,0.2423,0,0.2336,0.2349,0.2348,0.2356,0.2371,0.2368,0.2383,0.2384,0.2389,0.2398,0.2393,0.2402,0.24,0.2409,0.2408,0.2423,0.2425,0.2425,0.2425,0.2425,0.2425,0.2428,0.2426,0.2424,0.2424,0.2424,0.2423,0,0.2362,0.2361,0.2376,0.238,0.2382,0.2392,0.2396,0.2404,0.2405,0.2417,0.2419,0.242,0.2431,0.2431,0.2443,0.2442,0.246,0.2458,0.2458,0.2457,0.2469,0.2468,0.2509,0.2514,0.2479,0.248,0.248,0,0.2378,0.2388,0.2393,0.2399,0.2402,0.2411,0.2417,0.2415,0.2421,0.2429,0.2436,0.2446,0.2454,0.2472,0.2474,0.2483,0.2481,0.2494,0.2482,0.2482,0.248,0.2479,0.248,0.2496,0.2497,0.2497,0.2497,0,0.2408,0.2407,0.2415,0.2424,0.243,0.2437,0.2443,0.2448,0.2447,0.2454,0.2465,0.2471,0.2484,0.2494,0.2503,0.2506,0.2502,0.2502,0.2505,0.2505,0.2504,0.2504,0.2464,0.25,0.25,0.25,0.25,0.2499,0.2429,0.2437,0.2442,0.2452,0.2456,0.2462,0.247,0.2472,0.2481,0.2491,0.249,0.2502,0.2508,0.2519,0.2524,0.2533,0.2528,0.2533,0.2534,0.2535,0.2536,0.2504,0.2535,0.2535,0.2535,0.2535,0.2535,0,0.2457,0.246,0.2469,0.2478,0.2485,0.2481,0.2488,0.2494,0.2505,0.2511,0.2519,0.2531,0.2542,0.2545,0.2555,0.2562,0.256,0.2565,0.2563,0.2564,0.254,0.2536,0.2566,0.2566,0.2566,0.2566,0.2566,0.2566,0.2473,0.2487,0.2487,0.2504,0.2507,0.2518,0.2523,0.2528,0.2533,0.2547,0.2556,0.2558,0.2563,0.2573,0.2583,0.2583,0.2587,0.2592,0.2592,0.2569,0.2566,0.2563,0.2559,0.2593,0.2593,0.2615,0.2616,0.2616]},{"header":{"parameterUnit":"m.s-1","parameterCategory":1,"la1":30.2991,"la2":30.254,"lo1":-89.0895,"lo2":-89.0444,"dy":0.0017,"dx":0.0017,"nx":28,"ny":28,"refTime":"2025-08-19T09:00:00:Z","depth":0,"parameterNumber":3,"parameterNumberName":"V-component_of_WINDS"},"data":[0,0,0,0,0,0,0,0,0,0,0,0,0,0,0,0,0,0,0,0,0,0,0,0,0,0,0,0,0,0,0,0,0,0,0,0,0,0,0,0,0,0,0,0,0,0,0,0,0,0,0,0,0,0,0,0,0,0,-3.0162,-3.0162,0,-3.0224,-3.0225,-3.0225,-3.0243,-3.0242,-3.0242,-3.0242,-3.0302,-3.0304,-3.0306,0,0,0,0,0,0,0,0,0,0,0,0,0,-3.0057,-3.0059,-3.0162,-3.0162,-3.0163,-3.0224,-3.0225,-3.0225,-3.0243,-3.0242,-3.0242,-3.0241,-3.0302,-3.0304,-3.0306,0,0,0,0,0,0,0,0,0,0,0,0,0,-3.0109,-3.0059,-3.0161,-3.0179,-3.0181,-3.0224,-3.0225,-3.0226,-3.0243,-3.0242,-3.0242,-3.0241,-3.0301,-3.0304,-3.0307,-3.0335,0,0,-3.0315,-3.0317,0,0,0,0,0,0,0,0,-3.0106,-3.0113,-3.0176,-3.0178,-3.0181,-3.0225,-3.021,-3.0262,-3.0243,-3.0219,-3.0242,-3.0241,-3.0277,-3.0282,-3.0294,-3.0337,-3.034,-3.0316,-3.0317,-3.0319,-3.0319,0,0,0,0,0,0,0,-3.0102,-3.011,-3.0186,-3.0177,-3.018,-3.0184,-3.019,-3.022,-3.025,-3.0221,-3.0223,-3.023,-3.0278,-3.0291,-3.0296,-3.0341,-3.0316,-3.0318,-3.032,-3.0321,-3.0413,-3.0414,0,0,0,0,0,0,-3.0096,-3.0107,-3.0184,-3.0188,-3.0141,-3.0186,-3.0194,-3.0211,-3.025,-3.0255,-3.023,-3.0231,-3.0287,-3.0292,-3.0298,-3.0335,-3.0319,-3.0321,-3.0323,-3.0412,-3.0413,-3.0414,0,0,0,0,0,0,-3.0094,-3.0103,-3.0182,-3.0148,-3.0158,-3.0188,-3.0208,-3.0213,-3.0226,-3.0257,-3.0262,-3.0239,-3.0287,-3.0294,-3.0326,-3.0338,-3.0323,-3.0325,-3.0411,-3.0412,-3.0413,-3.0409,0,0,0,0,0,0,-3.009,-3.0102,-3.0113,-3.0148,-3.016,-3.0209,-3.0209,-3.0214,-3.0232,-3.0232,-3.0266,-3.0271,-3.0287,-3.0322,-3.0329,-3.0341,-3.0328,-3.0411,-3.0412,-3.0413,-3.0408,-3.041,-3.0411,0,0,0,0,0,-3.0087,-3.0108,-3.0113,-3.0122,-3.0175,-3.021,-3.0216,-3.0235,-3.0232,-3.0244,-3.0264,-3.027,-3.0335,-3.0325,-3.0333,-3.0347,-3.041,-3.0411,-3.0413,-3.0408,-3.0409,-3.0411,0,0,0,0,0,0,-3.0071,-3.0112,-3.0119,-3.0152,-3.0178,-3.0213,-3.0227,-3.0236,-3.0262,-3.0261,-3.0282,-3.029,-3.0321,-3.0337,-3.0325,-3.0377,-3.0373,-3.0376,-3.0366,-3.0368,-3.0369,-3.0365,-3.033,0,0,0,0,0,-3.0072,-3.0097,-3.0132,-3.0158,-3.0171,-3.0197,-3.0213,-3.0225,-3.0252,-3.0262,-3.0284,-3.0309,-3.0336,-3.0352,-3.0378,-3.0411,-3.0419,-3.0424,-3.0425,-3.0426,-3.0429,-3.045,-3.0453,-3.0419,-3.0419,-3.0419,0,0,-3.0073,-3.0099,-3.0113,-3.0156,-3.0177,-3.0203,-3.0206,-3.0232,-3.0252,-3.0266,-3.0299,-3.0316,-3.0345,-3.0378,-3.0394,-3.0392,-3.0441,-3.0428,-3.0429,-3.0431,-3.0452,-3.0455,-3.0458,-3.042,-3.042,-3.042,0,0,-3.0089,-3.011,-3.0136,-3.0157,-3.019,-3.0208,-3.0214,-3.0248,-3.0261,-3.0294,-3.0306,-3.0329,-3.0374,-3.0395,-3.0412,-3.0438,-3.0446,-3.0446,-3.0453,-3.0473,-3.0476,-3.0478,-3.049,-3.0493,-3.0449,-3.0449,-3.0449,0,-3.0086,-3.0126,-3.0147,-3.0175,-3.0193,-3.0209,-3.0235,-3.0255,-3.0293,-3.0306,-3.0304,-3.0362,-3.0383,-3.0422,-3.0429,-3.0441,-3.045,-3.0442,-3.0474,-3.0477,-3.0479,-3.049,-3.0494,-3.0448,-3.0448,-3.0448,-3.0448,0,-3.0122,-3.015,-3.0166,-3.0206,-3.0226,-3.0252,-3.0278,-3.0296,-3.0307,-3.0325,-3.036,-3.0386,-3.0418,-3.0428,-3.0438,-3.047,-3.0468,-3.047,-3.0466,-3.0482,-3.0493,-3.0497,-3.0448,-3.0448,-3.0448,-3.0448,0,0,-3.0128,-3.0181,-3.0186,-3.0206,-3.0244,-3.0266,-3.0293,-3.0327,-3.0343,-3.0369,-3.0394,-3.0432,-3.0435,-3.0454,-3.0467,-3.0484,-3.0506,-3.0484,-3.0485,-3.0489,-3.0545,-3.0544,-3.0548,-3.0511,-3.0512,-3.0513,-3.0543,0,-3.0149,-3.0201,-3.0222,-3.0263,-3.029,-3.0307,-3.0331,-3.0357,-3.0375,-3.0401,-3.042,-3.0448,-3.0449,-3.0461,-3.0479,-3.05,-3.0518,-3.0498,-3.0534,-3.0536,-3.0528,-3.0554,-3.0553,-3.058,-3.0547,-3.0548,-3.0548,0,-3.0181,-3.0211,-3.0255,-3.0293,-3.0305,-3.0327,-3.036,-3.0384,-3.0415,-3.0427,-3.0449,-3.0462,-3.0492,-3.0486,-3.0529,-3.0515,-3.0531,-3.0544,-3.0546,-3.055,-3.0543,-3.056,-3.0588,-3.0593,-3.0554,-3.0554,-3.0553,0,-3.0183,-3.0234,-3.0268,-3.0283,-3.0327,-3.0343,-3.0362,-3.0392,-3.0411,-3.044,-3.0454,-3.0485,-3.0502,-3.0527,-3.0548,-3.0541,-3.0589,-3.0584,-3.0601,-3.06,-3.061,-3.0609,-3.0642,-3.0619,-3.0619,-3.0619,-3.0619,0,-3.0205,-3.0232,-3.027,-3.029,-3.0322,-3.0346,-3.0376,-3.0396,-3.0423,-3.0449,-3.0464,-3.0487,-3.0513,-3.054,-3.0557,-3.0591,-3.0598,-3.0609,-3.0613,-3.0608,-3.0607,-3.062,-3.0619,-3.062,-3.062,-3.0619,-3.0619,0,-3.0213,-3.0239,-3.0277,-3.0317,-3.0328,-3.0349,-3.0383,-3.0404,-3.0424,-3.0456,-3.0465,-3.0496,-3.0528,-3.0552,-3.0593,-3.0605,-3.0642,-3.0645,-3.0632,-3.0634,-3.065,-3.0648,-3.0693,-3.0701,-3.067,-3.0671,-3.0671,0,-3.0225,-3.0247,-3.029,-3.0309,-3.0329,-3.0358,-3.0379,-3.0404,-3.0425,-3.0463,-3.048,-3.0515,-3.0543,-3.0595,-3.0621,-3.0653,-3.0658,-3.0672,-3.0663,-3.0658,-3.066,-3.0659,-3.0662,-3.0673,-3.0673,-3.0673,-3.0673,0,-3.0246,-3.0259,-3.0289,-3.0324,-3.0349,-3.0378,-3.0406,-3.0421,-3.0451,-3.0474,-3.0508,-3.0531,-3.0575,-3.0609,-3.0645,-3.0664,-3.0674,-3.0676,-3.0682,-3.0677,-3.0669,-3.0676,-3.0636,-3.0675,-3.0675,-3.0675,-3.0675,-3.0675,-3.0257,-3.0279,-3.0313,-3.0347,-3.0372,-3.0399,-3.0422,-3.0445,-3.0475,-3.0514,-3.0527,-3.0563,-3.0595,-3.0645,-3.0665,-3.0693,-3.0693,-3.0701,-3.0703,-3.0705,-3.0705,-3.0664,-3.07,-3.07,-3.07,-3.07,-3.07,0,-3.028,-3.0304,-3.0335,-3.0376,-3.0403,-3.0412,-3.0445,-3.0466,-3.0499,-3.0528,-3.0557,-3.0598,-3.0632,-3.0662,-3.0697,-3.0715,-3.072,-3.0723,-3.0723,-3.0727,-3.0703,-3.0695,-3.0718,-3.0718,-3.0718,-3.0718,-3.0718,-3.0718,-3.0295,-3.0332,-3.0349,-3.0399,-3.0422,-3.0459,-3.0478,-3.0503,-3.0528,-3.0573,-3.0602,-3.0622,-3.0652,-3.069,-3.0722,-3.073,-3.0743,-3.0745,-3.0754,-3.0731,-3.0729,-3.0727,-3.072,-3.0747,-3.0747,-3.0776,-3.0777,-3.0777]}]]